Powrót do katalogu

STARLINK-31273

AktywnyŁącznośćVLEO
NORAD 58846·PAYLOAD·🇺🇸 United States

Wystrzelony Jan 24, 2024 z Vandenberg Space Force Base

Loading…

Następne Przeloty (najbliższe 24 godziny)

TLE

ŚwieżeSource: CelesTrak SupGP

Epoka: Sep 15, 2026, 03:14 UTC

1 58846C 24017W   26258.13520833 -.00000588  00000+0 -17370-4 0  2585
2 58846  53.1587  42.4433 0001170  93.1107  72.9509 15.34380988    14

Śledź STARLINK-31273 w czasie rzeczywistym z AllMySat

Download on the App Store